EW6511 Weather Reports


Display with metric or nautical units.
time (UTC)temp
F
wind
direction
speed
MPH
gust
MPH
rain 1hr
in
rain 24hr
in
rain mn
in
humidity
%
barometer
mb
20260507040316 45 159 0.0 0.0 0.00 0.32 0.05 84 1014.4
20260507035317 44 159 0.0 0.0 0.00 0.32 0.05 84 1014.4
20260507034317 44 160 0.0 1.0 0.00 0.32 0.05 84 1014.4
20260507033318 45 216 0.0 0.0 0.00 0.32 0.05 84 1014.2
20260507032317 45 216 0.0 2.0 0.00 0.32 0.05 83 1014.2
20260507031318 45 216 1.0 2.0 0.00 0.32 0.05 84 1014.2
20260507024316 45 216 0.0 0.0 0.00 0.32 0.05 84 1014.0
20260507023316 45 216 0.0 0.0 0.00 0.32 0.05 83 1014.1
20260507022315 45 216 1.0 3.0 0.00 0.32 0.05 83 1014.1
20260507021314 45 216 1.0 3.0 0.00 0.32 0.05 83 1013.9
20260507020316 45 217 0.0 2.0 0.00 0.32 0.05 83 1013.9
20260507015315 45 217 0.0 0.0 0.00 0.32 0.05 83 1013.9
20260507014310 46 217 0.0 2.0 0.00 0.32 0.05 83 1013.9
20260507013309 46 217 0.0 2.0 0.01 0.32 0.05 83 1013.9
20260507012308 46 217 0.0 2.0 0.01 0.32 0.05 83 1013.9
20260507011309 46 217 1.0 2.0 0.01 0.32 0.05 82 1013.8
20260507010309 46 217 1.0 2.0 0.02 0.32 0.05 82 1013.8
20260507005310 46 217 1.0 3.0 0.02 0.32 0.05 82 1013.8
20260507004310 46 217 2.0 4.0 0.02 0.32 0.05 82 1013.8
20260507003306 46 220 2.0 4.0 0.02 0.31 0.04 82 1013.9
20260507002306 46 221 2.0 5.0 0.02 0.31 0.04 82 1013.9
20260507000259 46 163 1.0 5.0 0.02 0.31 0.03 82 1013.8
20260506235258 46 163 1.0 4.0 0.02 0.31 0.03 82 1013.7
20260506234259 46 163 2.0 5.0 0.03 0.31 0.03 82 1013.7
20260506233300 46 163 2.0 4.0 0.02 0.30 0.02 82 1013.9
20260506232258 46 162 0.0 4.0 0.02 0.29 0.02 81 1013.9
20260506231314 46 162 2.0 5.0 0.02 0.29 0.02 81 1013.9
20260506230258 46 161 3.0 6.0 0.01 0.28 0.01 81 1013.8
20260506225259 46 219 2.0 5.0 0.01 0.28 0.01 80 1013.9
20260506224253 46 174 2.0 7.0 0.00 0.28 0.00 80 1013.8
20260506223252 46 212 2.0 5.0 0.00 0.28 0.00 80 1013.9
20260506222252 46 230 2.0 5.0 0.00 0.28 0.00 80 1013.7
20260506220254 46 199 2.0 4.0 0.00 0.28 0.00 80 1013.6
20260506215251 46 183 2.0 4.0 0.00 0.28 0.28 80 1013.6
20260506214251 46 240 1.0 2.0 0.00 0.28 0.28 79 1013.5
20260506213251 46 248 3.0 5.0 0.00 0.28 0.28 79 1013.5
20260506212252 46 239 1.0 4.0 0.00 0.28 0.28 79 1013.4
20260506210243 46 214 0.0 0.0 0.00 0.28 0.28 78 1013.2
20260506205245 46 214 0.0 0.0 0.00 0.28 0.28 78 1013.1
20260506204245 46 214 0.0 0.0 0.00 0.28 0.28 78 1013.0
20260506203245 46 214 0.0 4.0 0.00 0.28 0.28 78 1012.9
20260506202244 47 214 2.0 4.0 0.00 0.28 0.28 78 1012.9
20260506201244 47 214 0.0 0.0 0.00 0.28 0.28 78 1012.9
20260506200244 47 214 0.0 1.0 0.00 0.28 0.28 77 1012.8
20260506195245 47 214 0.0 1.0 0.00 0.28 0.28 77 1012.5
20260506192243 47 214 2.0 4.0 0.00 0.28 0.28 76 1012.2
20260506191243 48 234 3.0 5.0 0.00 0.28 0.28 75 1012.1
20260506190240 49 239 3.0 8.0 0.00 0.28 0.28 74 1012.1
20260506185240 49 207 3.0 7.0 0.00 0.28 0.28 74 1012.1
20260506182238 50 215 3.0 7.0 0.00 0.28 0.28 72 1011.9
20260506180236 51 241 7.0 13.0 0.00 0.28 0.28 70 1011.6
20260506175237 51 244 8.0 12.0 0.00 0.28 0.28 69 1011.6
20260506174236 51 242 8.0 16.0 0.00 0.28 0.28 69 1011.7
20260506173236 51 242 10.0 16.0 0.00 0.28 0.28 68 1011.5
20260506172236 52 259 9.0 14.0 0.00 0.28 0.28 69 1011.5
20260506170235 52 273 7.0 15.0 0.00 0.28 0.28 71 1011.3
20260506164237 52 272 5.0 12.0 0.00 0.28 0.28 71 1011.2
20260506162236 53 272 9.0 14.0 0.00 0.28 0.28 69 1011.2
20260506161235 53 272 10.0 16.0 0.00 0.28 0.28 68 1011.3
20260506160252 52 265 8.0 15.0 0.00 0.28 0.28 74 1011.3
20260506155235 51 268 10.0 15.0 0.00 0.28 0.28 73 1011.3
20260506154236 51 270 8.0 13.0 0.00 0.28 0.28 73 1011.2
20260506152236 52 284 9.0 15.0 0.00 0.28 0.28 73 1011.2
20260506151237 51 262 8.0 14.0 0.00 0.28 0.28 75 1011.2
20260506150237 50 263 9.0 16.0 0.00 0.28 0.28 75 1011.3
20260506145236 50 254 9.0 16.0 0.00 0.28 0.28 77 1011.5
20260506144237 49 233 9.0 18.0 0.00 0.28 0.28 76 1011.5
20260506143236 49 253 8.0 12.0 0.00 0.28 0.28 77 1011.5
20260506140235 49 210 7.0 13.0 0.00 0.28 0.28 80 1011.2
20260506135233 48 229 6.0 13.0 0.00 0.28 0.28 80 1011.3
20260506133232 48 254 9.0 18.0 0.00 0.28 0.28 79 1011.4
20260506132232 48 238 10.0 20.0 0.00 0.28 0.28 78 1011.3
20260506131232 49 290 10.0 18.0 0.00 0.28 0.28 78 1011.2
20260506130232 49 257 7.0 13.0 0.00 0.28 0.28 78 1011.2
20260506125231 49 257 8.0 12.0 0.00 0.28 0.28 79 1011.2
20260506124230 48 244 7.0 14.0 0.00 0.28 0.28 79 1011.2
20260506123230 48 228 5.0 9.0 0.00 0.28 0.28 79 1011.0
20260506122230 48 236 6.0 12.0 0.00 0.28 0.28 79 1010.9
20260506121230 48 236 8.0 15.0 0.00 0.28 0.28 79 1010.8
20260506120224 48 244 10.0 17.0 0.02 0.28 0.28 80 1010.8
20260506115224 48 225 8.0 16.0 0.02 0.28 0.28 81 1010.7
20260506114223 47 266 9.0 18.0 0.02 0.28 0.28 82 1010.6
20260506113224 47 273 9.0 18.0 0.03 0.28 0.28 83 1010.6
20260506112224 47 248 10.0 20.0 0.05 0.28 0.28 83 1010.6
20260506111220 47 265 9.0 19.0 0.07 0.28 0.28 83 1010.4
20260506110221 48 265 10.0 16.0 0.08 0.26 0.26 83 1010.3
20260506103222 48 196 6.0 11.0 0.21 0.24 0.24 83 1010.5
20260506102221 47 214 5.0 9.0 0.20 0.23 0.23 83 1010.3
20260506101219 48 214 6.0 11.0 0.17 0.20 0.20 83 1010.3
20260506100219 48 214 7.0 12.0 0.15 0.18 0.18 84 1010.2
20260506095220 48 214 8.0 15.0 0.13 0.17 0.17 84 1010.2
20260506092218 0 0.0 0.0 0.02 0.04 0.03 1009.7
20260506091214 0 0.0 0.0 0.02 0.04 0.03 1009.3
20260506085120 50 71 0.0 0.0 0.03 0.04 0.03 82 1009.0
20260506082114 50 69 0.0 2.0 0.01 0.02 0.01 81 1008.6
20260506081116 50 67 1.0 3.0 0.01 0.02 0.01 81 1008.5
20260506080118 50 92 0.0 3.0 0.00 0.01 0.00 81 1008.5
20260506073116 50 96 0.0 0.0 0.00 0.01 0.00 83 1008.3
20260506072115 49 96 0.0 0.0 0.00 0.01 0.00 83 1008.4
20260506070115 49 160 1.0 2.0 0.00 0.01 0.00 84 1008.5
20260506062114 47 183 0.0 2.0 0.00 0.03 0.00 84 1008.8
20260506061115 46 69 0.0 0.0 0.00 0.03 0.00 84 1008.8
20260506051111 44 68 1.0 3.0 0.00 0.06 0.00 84 1008.8
20260506050112 44 50 1.0 4.0 0.00 0.07 0.00 84 1008.7
20260506045111 44 50 0.0 1.0 0.00 0.07 0.00 83 1008.7
20260506044112 44 44 2.0 4.0 0.00 0.07 0.00 83 1008.7
20260506043106 44 90 1.0 2.0 0.00 0.07 0.00 83 1008.6
20260506042108 44 90 1.0 4.0 0.00 0.07 0.00 83 1008.6
20260506041107 44 82 0.0 0.0 0.00 0.07 0.00 83 1008.6